period_start,C,m1,H,J0,J1,J2,J3,J4,J5,JA,JB,JC,JD,JJ,JK,JN,#
2015-08-06 00:00:45,0.01,0.06,0.00,24.48,28.01,30.36,4.81,26.24,1021.88,2037.72,3359.63,3261.00,3540.71,349.65,347.69,10.49,0000 0000 0000 0000 000000
2015-08-06 00:05:46,0.02,0.06,0.00,24.50,28.02,30.35,4.76,26.34,1021.82,2037.56,3359.12,3261.00,3540.21,350.30,348.05,10.52,0000 0000 0000 0000 000000
2015-08-06 00:10:48,0.01,0.06,0.00,24.49,28.02,30.36,4.75,26.14,1021.80,2037.66,3359.08,3261.00,3540.16,349.75,347.32,10.55,0000 0000 0000 0000 000000
2015-08-06 00:15:49,0.01,0.06,0.00,24.50,28.02,30.36,4.82,26.14,1021.80,2037.59,3359.03,3261.00,3540.02,350.26,347.94,10.58,0000 0000 0000 0000 000000
2015-08-06 00:20:50,-0.02,0.06,0.00,24.50,28.02,30.37,4.80,26.27,1021.71,2037.52,3359.00,3261.00,3540.00,350.28,347.83,10.61,0000 0000 0000 0000 000000
2015-08-06 00:25:52,-0.03,0.06,0.00,24.51,28.02,30.37,4.67,26.23,1021.85,2037.40,3359.00,3261.00,3540.00,350.21,347.83,10.64,0000 0000 0000 0000 000000
2015-08-06 00:30:53,-0.02,0.06,0.00,24.51,28.04,30.38,4.68,26.21,1021.94,2037.16,3358.99,3260.99,3539.98,349.36,347.06,10.67,0000 0000 0000 0000 000000
2015-08-06 00:35:54,-0.01,0.06,0.00,24.52,28.05,30.38,4.82,26.15,1021.98,2037.13,3358.95,3260.98,3539.97,350.33,348.07,10.69,0000 0000 0000 0000 000000
2015-08-06 00:40:55,0.01,0.06,0.00,24.52,28.05,30.38,4.73,26.14,1021.99,2037.09,3358.79,3260.96,3539.92,349.50,347.37,10.72,0000 0000 0000 0000 000000
2015-08-06 00:45:57,0.01,0.06,0.00,24.53,28.05,30.38,4.76,26.23,1021.99,2037.07,3358.44,3260.96,3539.55,349.81,347.71,10.75,0000 0000 0000 0000 000000
2015-08-06 00:50:58,0.01,0.06,0.00,24.54,28.05,30.38,4.74,26.18,1021.99,2037.03,3358.09,3260.92,3539.16,349.62,347.27,10.78,0000 0000 0000 0000 000000
2015-08-06 00:55:59,0.01,0.06,0.00,24.55,28.07,30.40,4.80,26.31,1021.99,2037.06,3358.01,3260.85,3539.04,350.07,347.81,10.81,0000 0000 0000 0000 000000
2015-08-06 01:01:00,-0.00,0.06,0.00,24.56,28.07,30.41,4.74,26.31,1021.99,2037.05,3358.01,3260.85,3539.01,350.20,347.91,10.84,0000 0000 0000 0000 000000
2015-08-06 01:06:02,0.02,0.06,0.00,24.57,28.07,30.40,4.79,26.36,1021.99,2037.03,3357.99,3260.47,3539.00,350.15,347.81,10.87,0000 0000 0000 0000 000000
2015-08-06 01:11:03,-0.00,0.06,0.00,24.57,28.07,30.41,4.65,26.14,1021.99,2037.03,3357.99,3260.47,3539.00,349.08,346.86,10.90,0000 0000 0000 0000 000000
2015-08-06 01:16:04,0.00,0.06,0.00,24.58,28.09,30.42,4.77,26.22,1021.99,2037.04,3357.99,3260.47,3539.00,350.45,347.99,10.93,0000 0000 0000 0000 000000
2015-08-06 01:21:06,0.01,0.06,0.00,24.59,28.10,30.42,4.63,26.18,1021.99,2037.02,3357.96,3260.27,3538.97,349.56,347.67,10.96,0000 0000 0000 0000 000000
2015-08-06 01:26:07,0.02,0.06,0.00,24.61,28.10,30.43,4.81,26.17,1021.99,2037.01,3357.72,3260.11,3538.85,350.17,347.78,10.99,0000 0000 0000 0000 000000
2015-08-06 01:31:08,0.02,0.06,0.00,24.62,28.10,30.44,4.79,26.20,1021.99,2037.00,3357.24,3260.03,3538.33,350.14,347.70,11.02,0000 0000 0000 0000 000000
2015-08-06 01:36:10,0.00,0.06,0.00,24.62,28.12,30.44,4.78,26.23,1021.99,2037.00,3357.10,3260.02,3538.11,349.82,347.29,11.05,0000 0000 0000 0000 000000
2015-08-06 01:41:11,-0.00,0.06,0.00,24.63,28.12,30.45,4.77,26.20,1021.99,2037.01,3357.09,3260.03,3538.06,350.16,347.83,11.08,0000 0000 0000 0000 000000
2015-08-06 01:46:12,0.00,0.06,0.00,24.65,28.12,30.47,4.75,26.28,1021.99,2037.00,3357.00,3260.01,3538.00,350.10,347.76,11.10,0000 0000 0000 0000 000000
2015-08-06 01:51:14,0.00,0.06,0.00,24.65,28.14,30.46,4.73,26.32,1021.99,2037.00,3357.00,3260.00,3538.00,350.03,347.73,11.13,0000 0000 0000 0000 000000
2015-08-06 01:56:15,0.00,0.06,0.00,24.65,28.15,30.47,4.84,26.28,1021.99,2037.00,3356.99,3260.00,3537.98,350.40,347.91,11.16,0000 0000 0000 0000 000000
2015-08-06 02:01:17,0.01,0.07,0.00,24.65,28.15,30.49,4.73,26.38,1021.99,2037.00,3356.74,3260.00,3537.73,350.30,347.90,11.19,0000 0000 0000 0000 000000
2015-08-06 02:06:18,0.03,0.07,0.00,24.67,28.17,30.48,4.77,26.32,1021.99,2036.99,3356.11,3259.97,3537.13,350.40,347.93,11.22,0000 0000 0000 0000 000000
2015-08-06 02:11:20,0.00,0.07,0.00,24.69,28.17,30.49,4.81,26.28,1022.01,2036.99,3356.04,3259.97,3537.01,350.12,347.68,11.25,0000 0000 0000 0000 000000
2015-08-06 02:16:21,0.00,0.07,0.00,24.71,28.17,30.49,4.73,26.36,1022.02,2036.99,3356.01,3259.97,3537.01,349.95,347.28,11.28,0000 0000 0000 0000 000000
2015-08-06 02:21:22,0.00,0.07,0.00,24.72,28.18,30.50,4.80,26.25,1022.03,2036.98,3356.00,3259.82,3537.00,349.72,347.28,11.31,0000 0000 0000 0000 000000
2015-08-06 02:26:24,0.02,0.07,0.00,24.74,28.20,30.51,4.70,26.16,1022.19,2036.97,3355.99,3259.54,3536.97,350.08,347.29,11.34,0000 0000 0000 0000 000000
2015-08-06 02:31:24,0.03,0.07,0.00,24.75,28.20,30.52,4.74,26.11,1022.31,2036.94,3355.80,3259.08,3536.57,349.76,347.61,11.37,0000 0000 0000 0000 000000
2015-08-06 02:36:26,0.01,0.07,0.00,24.77,28.21,30.52,4.77,26.17,1022.35,2036.87,3355.26,3259.05,3536.10,349.86,347.45,11.40,0000 0000 0000 0000 000000
2015-08-06 02:41:27,-0.00,0.07,0.00,24.80,28.22,30.53,4.78,26.23,1022.39,2036.79,3355.01,3259.01,3536.00,350.02,347.62,11.43,0000 0000 0000 0000 000000
2015-08-06 02:46:28,0.01,0.07,0.00,24.81,28.23,30.54,4.81,26.19,1022.45,2036.86,3355.00,3259.00,3536.00,350.53,348.09,11.46,0000 0000 0000 0000 000000
2015-08-06 02:51:29,-0.02,0.07,0.00,24.83,28.25,30.55,4.80,26.24,1022.47,2036.76,3355.00,3259.00,3535.99,350.36,347.86,11.49,0000 0000 0000 0000 000000
2015-08-06 02:56:30,-0.05,0.07,0.00,24.85,28.25,30.57,4.80,26.32,1022.45,2036.34,3354.90,3258.99,3535.68,350.54,347.96,11.51,0000 0000 0000 0000 000000
2015-08-06 03:01:32,0.00,0.07,0.00,24.87,28.27,30.59,4.76,26.28,1022.40,2036.11,3354.27,3258.98,3535.13,349.50,347.01,11.54,0000 0000 0000 0000 000000
2015-08-06 03:06:33,0.00,0.07,0.00,24.88,28.28,30.60,4.71,26.30,1022.31,2036.07,3354.02,3258.98,3535.01,349.55,347.11,11.57,0000 0000 0000 0000 000000
2015-08-06 03:11:35,0.01,0.07,0.00,24.90,28.30,30.60,4.82,26.26,1022.44,2036.08,3354.00,3258.92,3535.00,350.28,347.73,11.60,0000 0000 0000 0000 000000
2015-08-06 03:16:36,0.00,0.07,0.00,24.91,28.30,30.61,4.64,26.24,1022.46,2036.04,3354.00,3258.76,3535.00,349.69,347.25,11.63,0000 0000 0000 0000 000000
2015-08-06 03:21:37,0.02,0.07,0.00,24.92,28.32,30.63,4.74,26.28,1022.48,2036.02,3353.96,3258.30,3534.86,349.92,347.26,11.66,0000 0000 0000 0000 000000
2015-08-06 03:26:38,0.02,0.07,0.00,24.94,28.33,30.65,4.69,26.23,1022.48,2036.00,3353.74,3258.08,3534.39,349.72,347.14,11.69,0000 0000 0000 0000 000000
2015-08-06 03:31:39,0.02,0.07,0.00,24.95,28.35,30.66,4.69,26.23,1022.48,2036.00,3353.30,3258.04,3534.07,349.50,346.91,11.72,0000 0000 0000 0000 000000
2015-08-06 03:36:40,0.01,0.07,0.00,24.97,28.36,30.67,4.69,26.18,1022.49,2036.00,3353.05,3258.01,3534.02,350.48,347.87,11.75,0000 0000 0000 0000 000000
2015-08-06 03:41:41,0.00,0.07,0.00,24.97,28.37,30.69,4.75,26.17,1022.48,2036.00,3353.00,3258.00,3534.00,350.02,347.42,11.78,0000 0000 0000 0000 000000
2015-08-06 03:46:43,0.00,0.07,0.00,24.97,28.39,30.71,4.66,26.17,1022.48,2036.00,3352.98,3258.00,3533.97,349.53,346.74,11.81,0000 0000 0000 0000 000000
2015-08-06 03:51:44,0.00,0.07,0.00,24.99,28.40,30.73,4.78,26.10,1022.48,2036.00,3352.96,3257.97,3533.78,349.90,347.39,11.84,0000 0000 0000 0000 000000
2015-08-06 03:56:45,0.01,0.07,0.00,25.00,28.42,30.74,4.79,26.26,1022.48,2036.00,3352.79,3257.98,3533.43,350.27,347.69,11.87,0000 0000 0000 0000 000000
2015-08-06 04:01:46,0.03,0.07,0.00,25.01,28.42,30.74,4.73,26.28,1022.49,2035.99,3352.22,3257.87,3533.03,350.24,347.49,11.90,0000 0000 0000 0000 000000
2015-08-06 04:06:47,0.01,0.07,0.00,25.02,28.44,30.76,4.65,26.23,1022.48,2035.99,3352.03,3257.74,3533.00,349.70,347.03,11.92,0000 0000 0000 0000 000000
2015-08-06 04:11:49,0.02,0.07,0.00,25.03,28.45,30.77,4.68,26.18,1022.48,2035.97,3352.00,3257.38,3533.00,349.21,346.58,11.95,0000 0000 0000 0000 000000
2015-08-06 04:16:50,0.01,0.07,0.00,25.04,28.47,30.78,4.75,26.20,1022.48,2035.97,3352.00,3257.05,3532.98,349.97,347.02,11.98,0000 0000 0000 0000 000000
2015-08-06 04:21:51,-0.01,0.07,0.00,25.05,28.47,30.79,4.71,26.16,1022.48,2035.87,3351.96,3257.02,3532.82,349.76,346.94,12.01,0000 0000 0000 0000 000000
2015-08-06 04:26:52,-0.02,0.07,0.00,25.07,28.50,30.81,4.68,26.17,1022.48,2035.62,3351.71,3257.00,3532.24,348.98,346.36,12.04,0000 0000 0000 0000 000000
2015-08-06 04:31:53,-0.01,0.07,0.00,25.08,28.50,30.82,4.67,26.17,1022.48,2035.54,3351.36,3257.00,3532.07,349.49,346.75,12.07,0000 0000 0000 0000 000000
2015-08-06 04:36:54,-0.01,0.07,0.00,25.09,28.52,30.84,4.85,26.23,1022.48,2035.35,3351.06,3257.00,3532.01,350.56,347.85,12.10,0000 0000 0000 0000 000000
2015-08-06 04:41:55,-0.03,0.07,0.00,25.10,28.52,30.85,4.82,26.21,1022.48,2035.15,3351.00,3256.98,3532.00,349.83,347.35,12.13,0000 0000 0000 0000 000000
2015-08-06 04:46:56,-0.01,0.07,0.00,25.10,28.54,30.86,4.84,26.22,1022.48,2035.06,3351.00,3256.96,3532.00,350.77,348.03,12.16,0000 0000 0000 0000 000000
2015-08-06 04:51:58,0.00,0.07,0.00,25.10,28.55,30.87,4.68,26.12,1022.48,2035.05,3351.00,3256.91,3531.97,349.85,346.93,12.19,0000 0000 0000 0000 000000
2015-08-06 04:56:59,0.00,0.07,0.00,25.12,28.56,30.89,4.79,26.21,1022.48,2035.02,3350.97,3256.85,3531.82,350.05,347.28,12.22,0000 0000 0000 0000 000000
2015-08-06 05:02:00,0.06,0.07,0.00,25.12,28.57,30.89,4.78,26.27,1022.48,2035.01,3350.49,3256.42,3531.21,350.01,347.32,12.25,0000 0000 0000 0000 000000
2015-08-06 05:07:01,0.01,0.07,0.00,25.13,28.58,30.90,4.78,26.36,1022.48,2035.00,3350.04,3256.07,3531.00,350.06,347.30,12.28,0000 0000 0000 0000 000000
2015-08-06 05:12:02,0.00,0.07,0.00,25.13,28.60,30.91,4.80,26.36,1022.48,2035.00,3350.01,3256.03,3531.00,350.53,347.60,12.30,0000 0000 0000 0000 000000
2015-08-06 05:17:03,0.00,0.07,0.00,25.14,28.60,30.93,4.84,26.32,1022.48,2035.00,3350.00,3256.01,3531.00,350.26,347.32,12.33,0000 0000 0000 0000 000000
2015-08-06 05:22:05,0.00,0.07,0.00,25.15,28.62,30.94,4.82,26.23,1022.48,2035.00,3350.00,3256.01,3530.97,350.16,347.29,12.36,0000 0000 0000 0000 000000
2015-08-06 05:27:06,0.01,0.07,0.00,25.16,28.62,30.94,4.77,26.18,1022.48,2035.00,3349.89,3256.00,3530.62,349.80,347.08,12.39,0000 0000 0000 0000 000000
2015-08-06 05:32:07,0.02,0.07,0.00,25.17,28.63,30.95,4.75,26.20,1022.48,2035.00,3349.47,3255.99,3530.14,350.25,347.32,12.42,0000 0000 0000 0000 000000
2015-08-06 05:37:08,0.00,0.07,0.00,25.17,28.65,30.97,4.78,26.25,1022.48,2035.00,3349.31,3255.99,3530.05,350.11,347.34,12.45,0000 0000 0000 0000 000000
2015-08-06 05:42:09,0.00,0.07,0.00,25.18,28.65,30.99,4.72,26.19,1022.48,2034.99,3349.03,3255.96,3530.00,349.82,346.87,12.48,0000 0000 0000 0000 000000
2015-08-06 05:47:11,0.00,0.07,0.00,25.19,28.66,30.98,4.79,26.23,1022.48,2034.99,3349.00,3255.94,3529.99,349.88,347.05,12.51,0000 0000 0000 0000 000000
2015-08-06 05:52:12,-0.00,0.07,0.00,25.19,28.67,30.99,4.75,26.23,1022.48,2034.98,3349.00,3255.95,3529.99,349.81,346.87,12.54,0000 0000 0000 0000 000000
2015-08-06 05:57:13,0.01,0.07,0.00,25.20,28.67,31.01,4.76,26.18,1022.48,2034.96,3349.00,3255.72,3529.97,350.17,347.14,12.57,0000 0000 0000 0000 000000
2015-08-06 06:02:14,0.02,0.07,0.00,25.20,28.70,31.01,4.83,26.34,1022.48,2034.92,3348.89,3255.36,3529.65,349.99,347.05,12.60,0000 0000 0000 0000 000000
2015-08-06 06:07:15,0.01,0.07,0.00,25.20,28.70,31.02,4.69,26.32,1022.48,2034.89,3348.61,3255.24,3529.28,350.07,347.09,12.63,0000 0000 0000 0000 000000
2015-08-06 06:12:16,0.02,0.07,0.00,25.20,28.70,31.03,4.78,26.31,1022.48,2034.95,3348.50,3255.19,3529.10,350.52,347.68,12.66,0000 0000 0000 0000 000000
2015-08-06 06:17:18,-0.03,0.07,0.00,25.20,28.72,31.04,4.74,26.18,1022.48,2034.71,3348.05,3255.04,3529.01,349.98,347.04,12.69,0000 0000 0000 0000 000000
2015-08-06 06:22:19,0.03,0.07,0.00,25.20,28.72,31.04,4.68,26.15,1022.46,2034.77,3348.01,3255.04,3529.00,349.79,346.90,12.71,0000 0000 0000 0000 000000
2015-08-06 06:27:20,-0.04,0.07,0.00,25.20,28.72,31.06,4.86,26.27,1022.44,2034.66,3348.00,3255.02,3528.99,350.34,347.48,12.74,0000 0000 0000 0000 000000
2015-08-06 06:32:21,-0.00,0.07,0.00,25.21,28.73,31.05,4.78,26.25,1022.48,2034.57,3348.00,3255.00,3528.99,349.98,347.17,12.77,0000 0000 0000 0000 000000
2015-08-06 06:37:23,-0.03,0.07,0.00,25.22,28.75,31.06,4.76,26.06,1022.48,2034.30,3347.99,3255.00,3528.94,350.30,347.29,12.80,0000 0000 0000 0000 000000
2015-08-06 06:42:24,-0.01,0.07,0.00,25.22,28.75,31.08,4.74,26.17,1022.47,2034.12,3347.91,3255.00,3528.47,350.03,347.16,12.83,0000 0000 0000 0000 000000
2015-08-06 06:47:25,0.02,0.07,0.00,25.22,28.75,31.08,4.60,26.11,1022.46,2034.05,3347.46,3254.98,3528.10,349.19,346.29,12.86,0000 0000 0000 0000 000000
2015-08-06 06:52:26,0.01,0.07,0.00,25.21,28.76,31.08,4.81,26.22,1022.47,2034.03,3347.05,3254.96,3528.02,350.02,347.03,12.89,0000 0000 0000 0000 000000
2015-08-06 06:57:27,-0.00,0.07,0.00,25.21,28.77,31.08,4.76,26.23,1022.48,2034.02,3347.02,3254.84,3528.00,349.89,347.03,12.92,0000 0000 0000 0000 000000
2015-08-06 07:02:29,0.00,0.07,0.00,25.22,28.77,31.09,4.73,26.32,1022.48,2034.01,3347.01,3254.71,3528.00,350.05,347.30,12.95,0000 0000 0000 0000 000000
2015-08-06 07:07:30,0.02,0.07,0.00,25.22,28.77,31.11,4.72,26.28,1022.49,2034.00,3347.00,3254.32,3527.99,349.97,347.04,12.98,0000 0000 0000 0000 000000
2015-08-06 07:12:31,0.00,0.07,0.00,25.22,28.78,31.10,4.66,26.13,1022.49,2034.01,3347.00,3254.24,3527.98,349.91,346.78,13.01,0000 0000 0000 0000 000000
2015-08-06 07:17:32,0.00,0.07,0.00,25.22,28.79,31.11,4.83,26.22,1022.48,2034.00,3346.99,3254.05,3527.93,350.65,347.60,13.04,0000 0000 0000 0000 000000
2015-08-06 07:22:34,0.00,0.07,0.00,25.21,28.80,31.12,4.74,26.22,1022.48,2034.00,3346.96,3254.03,3527.88,349.62,346.67,13.07,0000 0000 0000 0000 000000
2015-08-06 07:27:35,-0.00,0.07,0.00,25.22,28.80,31.12,4.69,26.21,1022.48,2034.00,3346.96,3254.06,3527.91,349.32,346.42,13.10,0000 0000 0000 0000 000000
2015-08-06 07:32:36,0.03,0.07,0.00,25.22,28.80,31.12,4.58,26.25,1022.39,2034.00,3346.63,3254.02,3527.53,349.60,346.42,13.12,0000 0000 0000 0000 000000
2015-08-06 07:37:38,0.01,0.07,0.00,25.22,28.80,31.13,4.66,26.18,1022.35,2034.00,3346.46,3254.00,3527.19,349.71,346.76,13.15,0000 0000 0000 0000 000000
2015-08-06 07:42:39,0.01,0.08,0.00,25.22,28.80,31.12,4.82,26.31,1022.47,2034.00,3346.19,3254.00,3527.09,350.27,347.34,13.18,0000 0000 0000 0000 000000
2015-08-06 07:47:40,0.00,0.08,0.00,25.22,28.82,31.14,4.80,26.18,1022.48,2034.00,3346.14,3254.01,3527.05,350.15,347.29,13.21,0000 0000 0000 0000 000000
2015-08-06 07:52:41,0.00,0.08,0.00,25.22,28.82,31.13,4.70,26.19,1022.49,2034.00,3346.03,3254.00,3527.02,350.39,347.45,13.24,0000 0000 0000 0000 000000
2015-08-06 07:57:42,0.00,0.08,0.00,25.22,28.82,31.13,4.87,26.24,1022.49,2034.00,3346.01,3253.99,3527.00,350.67,347.64,13.27,0000 0000 0000 0000 000000
2015-08-06 08:02:44,0.00,0.08,0.00,25.22,28.82,31.14,4.73,26.38,1022.49,2034.00,3346.00,3253.98,3527.00,349.69,346.87,13.30,0000 0000 0000 0000 000000
2015-08-06 08:07:45,0.00,0.08,0.00,25.22,28.82,31.14,4.79,26.19,1022.49,2033.99,3346.00,3253.98,3526.99,350.01,347.05,13.33,0000 0000 0000 0000 000000
2015-08-06 08:12:46,0.00,0.08,0.00,25.22,28.82,31.15,4.71,26.18,1022.48,2033.99,3346.00,3253.98,3526.98,350.06,347.10,13.36,0000 0000 0000 0000 000000
2015-08-06 08:17:47,0.00,0.08,0.00,25.22,28.82,31.15,4.72,26.20,1022.50,2033.99,3346.00,3253.99,3526.99,349.90,347.02,13.39,0000 0000 0000 0000 000000
2015-08-06 08:22:48,0.00,0.08,0.00,25.22,28.83,31.16,4.70,26.12,1022.49,2033.99,3345.98,3253.97,3526.97,349.86,346.87,13.42,0000 0000 0000 0000 000000
2015-08-06 08:27:49,-0.00,0.08,0.00,25.22,28.84,31.17,4.72,26.22,1022.49,2033.98,3345.95,3253.92,3526.90,349.38,346.51,13.45,0000 0000 0000 0000 000000
2015-08-06 08:32:51,0.01,0.08,0.00,25.22,28.84,31.16,4.78,26.27,1022.48,2033.98,3345.90,3253.89,3526.83,350.36,347.37,13.48,0000 0000 0000 0000 000000
2015-08-06 08:37:52,0.02,0.08,0.00,25.21,28.85,31.17,4.70,26.13,1022.48,2033.99,3345.71,3253.74,3526.57,349.13,346.20,13.50,0000 0000 0000 0000 000000
2015-08-06 08:42:54,0.01,0.08,0.00,25.21,28.85,31.16,4.75,26.25,1022.48,2033.98,3345.65,3253.75,3526.54,349.97,347.12,13.53,0000 0000 0000 0000 000000
2015-08-06 08:47:55,0.00,0.08,0.00,25.21,28.85,31.16,4.88,26.35,1022.48,2033.98,3345.47,3253.65,3526.31,350.37,347.45,13.56,0000 0000 0000 0000 000000
2015-08-06 08:52:56,0.00,0.08,0.00,25.20,28.85,31.18,4.69,26.23,1022.49,2033.97,3345.34,3253.72,3526.26,349.41,346.63,13.59,0000 0000 0000 0000 000000
2015-08-06 08:57:57,0.02,0.08,0.00,25.20,28.85,31.16,4.68,26.14,1022.49,2033.97,3345.18,3253.66,3526.14,349.48,346.56,13.62,0000 0000 0000 0000 000000
2015-08-06 09:02:58,-0.01,0.08,0.00,25.20,28.85,31.16,4.76,26.38,1022.49,2033.99,3345.16,3253.83,3526.22,350.01,347.20,13.65,0000 0000 0000 0000 000000
2015-08-06 09:08:00,0.00,0.08,0.00,25.20,28.85,31.16,4.78,26.32,1022.49,2033.98,3345.13,3253.72,3526.10,350.34,347.37,13.68,0000 0000 0000 0000 000000
2015-08-06 09:13:01,0.01,0.08,0.00,25.20,28.85,31.17,4.72,26.19,1022.51,2033.97,3345.06,3253.42,3526.04,349.56,346.57,13.71,0000 0000 0000 0000 000000
2015-08-06 09:18:02,-0.01,0.08,0.00,25.20,28.85,31.17,4.64,26.10,1022.52,2033.98,3345.03,3253.45,3526.03,349.75,346.88,13.74,0000 0000 0000 0000 000000
2015-08-06 09:23:03,0.01,0.08,0.00,25.20,28.85,31.17,4.82,26.21,1022.52,2033.98,3345.00,3253.30,3526.01,350.06,347.23,13.77,0000 0000 0000 0000 000000
2015-08-06 09:28:04,-0.00,0.08,0.00,25.19,28.85,31.17,4.68,26.10,1022.51,2033.98,3345.00,3253.24,3526.00,349.40,346.75,13.80,0000 0000 0000 0000 000000
2015-08-06 09:33:05,0.00,0.08,0.00,25.17,28.85,31.18,4.83,26.21,1022.52,2033.96,3345.00,3253.24,3526.00,350.19,347.45,13.83,0000 0000 0000 0000 000000
2015-08-06 09:38:06,0.00,0.08,0.00,25.17,28.85,31.18,4.73,26.18,1022.51,2033.96,3345.00,3253.16,3526.00,349.88,347.02,13.86,0000 0000 0000 0000 000000
2015-08-06 09:43:08,0.00,0.08,0.00,25.17,28.85,31.16,4.70,26.18,1022.54,2033.98,3345.00,3253.15,3526.00,349.86,347.10,13.89,0000 0000 0000 0000 000000
2015-08-06 09:48:09,-0.00,0.08,0.00,25.17,28.85,31.16,4.75,26.16,1022.49,2033.97,3344.99,3253.15,3525.99,350.05,347.11,13.91,0000 0000 0000 0000 000000
2015-08-06 09:53:10,-0.00,0.08,0.00,25.17,28.85,31.17,4.72,26.13,1022.48,2033.97,3344.99,3253.23,3525.99,350.29,347.54,13.94,0000 0000 0000 0000 000000
2015-08-06 09:58:11,0.00,0.08,0.00,25.16,28.85,31.17,4.77,26.18,1022.48,2033.98,3344.98,3253.13,3525.99,349.71,346.80,13.97,0000 0000 0000 0000 000000
2015-08-06 10:03:13,-0.00,0.08,0.00,25.15,28.85,31.17,4.76,26.26,1022.49,2033.96,3344.95,3253.05,3525.98,350.18,347.28,14.00,0000 0000 0000 0000 000000
2015-08-06 10:08:14,0.00,0.08,0.00,25.15,28.84,31.17,4.72,26.16,1022.49,2033.98,3344.97,3253.10,3525.99,349.21,346.46,14.03,0000 0000 0000 0000 000000
2015-08-06 10:13:15,-0.00,0.08,0.00,25.15,28.84,31.15,4.84,26.18,1022.50,2033.99,3344.98,3253.22,3525.99,349.81,346.93,14.06,0000 0000 0000 0000 000000
2015-08-06 10:18:17,-0.01,0.08,0.00,25.14,28.83,31.16,4.73,26.17,1022.59,2033.98,3344.99,3253.37,3525.99,349.56,346.78,14.09,0000 0000 0000 0000 000000
2015-08-06 10:23:18,-0.01,0.08,0.00,25.13,28.83,31.16,4.79,26.13,1022.64,2033.99,3344.99,3253.57,3525.99,350.12,347.37,14.12,0000 0000 0000 0000 000000
2015-08-06 10:28:19,-0.00,0.08,0.00,25.12,28.82,31.17,4.79,26.14,1022.80,2033.99,3344.99,3253.75,3525.99,350.12,347.40,14.15,0000 0000 0000 0000 000000
2015-08-06 10:33:20,0.00,0.08,0.00,25.12,28.82,31.16,4.68,26.07,1022.82,2033.99,3344.99,3253.72,3525.99,349.80,347.27,14.18,0000 0000 0000 0000 000000
2015-08-06 10:38:22,0.02,0.08,0.00,25.12,28.82,31.17,4.73,26.09,1022.96,2033.99,3344.97,3253.38,3525.99,349.68,346.77,14.21,0000 0000 0000 0000 000000
2015-08-06 10:43:23,-0.00,0.08,0.00,25.11,28.82,31.16,4.75,26.07,1022.96,2033.99,3344.96,3253.31,3525.99,350.19,347.57,14.24,0000 0000 0000 0000 000000
2015-08-06 10:48:24,0.00,0.08,0.00,25.11,28.82,31.15,4.85,26.16,1022.90,2033.98,3344.92,3253.26,3525.98,350.48,347.73,14.27,0000 0000 0000 0000 000000
2015-08-06 10:53:25,-0.00,0.08,0.00,25.10,28.82,31.16,4.73,26.12,1022.64,2033.99,3344.86,3253.34,3525.98,349.61,347.07,14.29,0000 0000 0000 0000 000000
2015-08-06 10:58:26,0.00,0.08,0.00,25.09,28.82,31.15,4.74,26.12,1022.61,2033.99,3344.78,3253.35,3525.98,350.15,347.18,14.32,0000 0000 0000 0000 000000
2015-08-06 11:03:27,-0.00,0.08,0.00,25.07,28.82,31.15,4.77,26.29,1022.81,2033.98,3344.53,3253.45,3525.98,349.64,347.05,14.35,0000 0000 0000 0000 000000
2015-08-06 11:08:28,-0.00,0.08,0.00,25.07,28.81,31.13,4.75,26.07,1022.73,2033.99,3344.44,3253.41,3525.98,349.92,347.15,14.38,0000 0000 0000 0000 000000
2015-08-06 11:13:30,0.01,0.08,0.00,25.08,28.80,31.14,4.71,26.12,1022.85,2033.99,3344.29,3253.33,3525.95,349.84,347.31,14.41,0000 0000 0000 0000 000000
2015-08-06 11:18:31,-0.01,0.08,0.00,25.08,28.80,31.15,4.82,26.08,1022.91,2033.99,3344.30,3253.45,3525.96,350.29,347.64,14.44,0000 0000 0000 0000 000000
2015-08-06 11:23:32,0.01,0.08,0.00,25.07,28.80,31.13,4.74,26.12,1022.88,2033.99,3344.07,3253.26,3525.91,349.69,347.09,14.47,0000 0000 0000 0000 000000
2015-08-06 11:28:33,0.00,0.08,0.00,25.07,28.80,31.12,4.75,26.10,1022.92,2033.99,3344.04,3253.29,3525.94,349.71,347.04,14.50,0000 0000 0000 0000 000000
2015-08-06 11:33:34,0.00,0.08,0.00,25.07,28.80,31.12,4.81,26.04,1022.94,2033.99,3344.03,3253.30,3525.92,349.87,347.61,14.53,0000 0000 0000 0000 000000
2015-08-06 11:38:35,-0.02,0.08,0.00,25.05,28.80,31.12,4.71,26.06,1022.85,2033.99,3344.07,3253.50,3525.96,349.77,347.53,14.56,0000 0000 0000 0000 000000
2015-08-06 11:43:36,-0.00,0.08,0.00,25.05,28.80,31.13,4.77,26.07,1022.65,2033.99,3344.04,3253.69,3525.97,349.92,347.14,14.59,0000 0000 0000 0000 000000
2015-08-06 11:48:38,0.00,0.08,0.00,25.07,28.79,31.12,4.78,26.08,1022.88,2033.99,3344.05,3253.66,3525.96,350.33,347.65,14.62,0000 0000 0000 0000 000000
2015-08-06 11:53:39,-0.00,0.08,0.00,25.06,28.78,31.13,4.77,26.08,1022.83,2033.99,3344.02,3253.68,3525.95,349.76,347.36,14.65,0000 0000 0000 0000 000000
2015-08-06 11:58:40,0.01,0.08,0.00,25.06,28.77,31.11,4.79,26.08,1022.81,2034.00,3344.01,3253.62,3525.94,350.42,347.91,14.68,0000 0000 0000 0000 000000
2015-08-06 12:03:41,0.02,0.08,0.00,25.05,28.77,31.10,4.73,26.32,1022.83,2034.00,3344.00,3253.54,3525.74,350.11,347.49,14.71,0000 0000 0000 0000 000000
2015-08-06 12:08:42,-0.02,0.08,0.00,25.04,28.77,31.09,4.73,26.12,1022.53,2034.00,3344.00,3253.43,3525.72,350.05,347.32,14.73,0000 0000 0000 0000 000000
2015-08-06 12:13:44,0.02,0.08,0.00,25.02,28.77,31.09,4.76,26.06,1022.50,2034.00,3344.00,3253.48,3525.76,349.90,347.12,14.76,0000 0000 0000 0000 000000
2015-08-06 12:18:45,-0.01,0.08,0.00,25.02,28.77,31.10,4.80,26.06,1022.49,2034.00,3344.00,3253.48,3525.62,350.43,347.72,14.79,0000 0000 0000 0000 000000
2015-08-06 12:23:46,0.01,0.08,0.00,25.03,28.77,31.08,4.73,26.09,1022.49,2034.01,3344.00,3253.55,3525.51,349.84,347.14,14.82,0000 0000 0000 0000 000000
2015-08-06 12:28:47,0.00,0.08,0.00,25.03,28.77,31.08,4.81,26.10,1022.48,2034.01,3343.99,3253.59,3525.41,350.10,347.41,14.85,0000 0000 0000 0000 000000
2015-08-06 12:33:48,0.02,0.08,0.00,25.02,28.76,31.08,4.72,26.03,1022.49,2034.01,3343.98,3253.26,3525.11,350.00,347.41,14.88,0000 0000 0000 0000 000000
2015-08-06 12:38:50,0.00,0.08,0.00,25.00,28.75,31.08,4.69,25.99,1022.52,2034.00,3343.92,3253.17,3525.04,349.58,346.97,14.91,0000 0000 0000 0000 000000
2015-08-06 12:43:51,0.00,0.08,0.00,25.00,28.75,31.07,4.78,26.00,1022.50,2034.02,3343.89,3253.24,3525.03,349.43,347.14,14.94,0000 0000 0000 0000 000000
2015-08-06 12:48:52,-0.01,0.08,0.00,24.98,28.75,31.06,4.70,26.03,1022.48,2034.01,3343.84,3253.23,3525.02,349.92,347.26,14.97,0000 0000 0000 0000 000000
2015-08-06 12:53:54,0.02,0.08,0.00,24.97,28.75,31.08,4.79,26.07,1022.48,2034.03,3343.54,3253.18,3525.01,350.11,347.45,15.00,0000 0000 0000 0000 000000
2015-08-06 12:58:55,-0.00,0.08,0.00,24.95,28.75,31.05,4.76,26.04,1022.47,2034.04,3343.34,3253.15,3525.00,349.61,347.13,15.03,0000 0000 0000 0000 000000